Showing default

ORBCOMM FM 119, 41180

Orbit data source: Space-Track

ORBCOMM FM 119, 41180 is a payload satellite owned by Orbcomm (US) in LEO that was launched on Tue, 22 Dec 2015 UTC via an FALCON 9 launch vehicle from the Air Force Eastern Test Range (AFETR). Payload-class satellites include a variety of spacecraft equipped with specific instruments for various scientific and technological missions. These include communications satellites like Starlink; space stations such as the ISS; scientific satellites like the Hubble; Earth observation satellites from companies like Planet Labs, Umbra, and HawkEye 360; GPS; miniature CubeSats for education and research; and military/defense satellites.

Loading next visibility...
Identifier
41180, 2015-081B
Orbit
LEO
Country
Flag of USUS / ORB
Related business
Manufacturer
SNC Louisville
Mission
Non-operational Commercial Communications
Bus & Motor
SN-100A, Unknown motor
Mass
172 kg wet, 158 kg dry
Launch date (UTC)
2015-12-22 (10 years ago)
Launch vehicle
FALCON 9
Launch site
Air Force Eastern Test Range (AFETR)
Object type
Payload
Rocket body
Debris
Shape & HBR
Box + 1 Pan + 1 Ant, 10.3 m
Radar Cross Section
2.222 m², Medium (>0.1 m² and < 1m²)

Expand to show TLE details & history
Last TLE update: 16 hours ago

TLE from 16 hours ago
0 ORBCOMM FM 119
1 41180U 15081B   26036.74816865  .00001159  00000-0  28279-3 0  9998
2 41180  46.9992 172.7094 0000522 353.5114   6.5765 14.58618231539810
Epoch: 2026-02-05T17:57Z
TLE epoch observation values (Epoch: 2026-02-05T17:57:21.771Z)
Latitude
Longitude
127.47274°
Altitude
697.487 km
Speed
7.509 km/s
True Right ascension
11h 30m 50s
True Declination
0° 00' 00"
Sunlit
Object was in full shadow at epoch
Visualization orbit readout
Latitude
Unknown
Longitude
Unknown
Altitude
Unknown
Speed
Unknown
Apparent Right ascension
Unknown
Apparent Declination
Unknown
Sunlit
N/A
Visualization observer readout
Local Sidereal Time
12:27:18
Azimuth
Unknown
Elevation
Unknown
Doppler factor
Unknown
Orbital elements
Apogee altitude
699.244 km
Perigee altitude
698.505 km
Semi-major axis
7,077.011 km
Eccentricity
0.00005
Inclination
46.9992°
RAAN
172.7094°
Arg. of periapsis
353.5114°
True anomaly
6.57719°
Mean anomaly
6.5765°
Eccentric anomaly
6.57684°
Mean motion
3.64559 °/min
Orbital period
98.75 mins
BSTAR
0.00028279
Loading maneuver chart data...
Computing Atmospheric mass density...
Loading historical data...
Loading historical data...
Loading historical data...
Loading historical data...
Loading historical data...
Loading historical data...
Loading historical data...

Documentation

Showing up to 5 results
|